User: anonymous
Location: Syracuse
(43.0480°N, 76.1480°W)
Time: 08:25:33
(UTC-04:00)
Language:

Cosmos 1140 Rocket - Orbit

View from above orbital plane
View from above orbital plane
View from above satellite
View from above satellite

Ground track
Ground track

The orbit data is extracted from the following two-line orbital elements,

1 11574U 79089B   14205.07049537  .00000039  00000-0  20443-4 0  7894
2 11574 074.0713 013.5640 0016006 191.2100 304.5530 14.40238266824659
Epoch (UTC): 24 July 2014 01:41:30
Eccentricity: 0.0016006
inclination: 74.0713°
perigee height: 746 km
apogee height: 769 km
right ascension of ascending node: 13.5640°
argument of perigee: 191.2100°
revolutions per day: 14.40238266
mean anomaly at epoch: 304.5530°
orbit number at epoch: 82465

The dashed part of the orbit path shows where the satellite is in the earth's shadow,  

DLR